Terug naar catalogus

STARLINK-6375

ActiefCommunicatieVLEO
NORAD 57342·PAYLOAD·🇺🇸 United States

Gelanceerd Jul 16, 2023 vanaf Cape Canaveral Space Force Station

Loading…

Volgende Passages (komende 24 uur)

TLE

VersSource: CelesTrak SupGP

Epoch: Sep 14, 2026, 20:40 UTC

1 57342C 23099Q   26257.86159722  .00016046  00000+0  58132-3 0  2571
2 57342  42.9993 260.7439 0001277 261.1290 209.1845 15.27564089    15

Volg STARLINK-6375 in realtime met AllMySat

Download on the App Store